Location: Bouchavesnes-Bergen
(49.9859°N, 2.9203°E)
Time: 23:54:22
(UTC+00:00)

Cosmos 2219 Rocket - Pass Details

Date: 09 March 2021
Orbit: 826 x 848 km, 71.0° (Epoch: 13 April)

Event Time Altitude Azimuth Distance (km) Brightness Sun altitude
Rises 02:50:43 0° 333° (NNW) 3,404 5.5 -31.9°
Reaches altitude 10° 02:53:22 10° 342° (NNW) 2,469 4.8 -31.6°
Maximum altitude 02:58:36 37° 49° (NE) 1,286 3.5 -30.9°
Drops below altitude 10° 03:03:51 10° 117° (ESE) 2,468 4.9 -30.2°
Sets 03:06:28 0° 125° (SE) 3,401 5.6 -29.8°
